[[{"header":{"parameterUnit":"m.s-1","parameterCategory":1,"la1":30.2991,"la2":30.254,"lo1":-89.0895,"lo2":-89.0444,"dy":0.0017,"dx":0.0017,"nx":28,"ny":28,"refTime":"2026-03-03T03:00:00:Z","depth":0,"parameterNumber":2,"parameterNumberName":"U-component_of_WINDS"},"data":[0,0,0,0,0,0,0,0,0,0,0,0,0,0,0,0,0,0,0,0,0,0,0,0,0,0,0,0,0,0,0,0,0,0,0,0,0,0,0,0,0,0,0,0,0,0,0,0,0,0,0,0,0,0,0,0,0,0,-4.5888,-4.5888,0,-4.5903,-4.5903,-4.5903,-4.5805,-4.5802,-4.5799,-4.5796,-4.5811,-4.5814,-4.5817,0,0,0,0,0,0,0,0,0,0,0,0,0,-4.5777,-4.5779,-4.5888,-4.5888,-4.5888,-4.5903,-4.5903,-4.5903,-4.5805,-4.5802,-4.5798,-4.5795,-4.581,-4.5814,-4.5817,0,0,0,0,0,0,0,0,0,0,0,0,0,-4.5812,-4.578,-4.5888,-4.5841,-4.5837,-4.5903,-4.5903,-4.5903,-4.5806,-4.5802,-4.5797,-4.5794,-4.5809,-4.5813,-4.5818,-4.5929,0,0,-4.5831,-4.5833,0,0,0,0,0,0,0,0,-4.581,-4.5816,-4.5848,-4.5845,-4.584,-4.5848,-4.5869,-4.5912,-4.5807,-4.5818,-4.5796,-4.5792,-4.5827,-4.5829,-4.5841,-4.5929,-4.593,-4.5832,-4.5835,-4.5836,-4.5838,0,0,0,0,0,0,0,-4.5808,-4.5815,-4.5894,-4.5849,-4.5844,-4.582,-4.582,-4.5877,-4.5845,-4.5816,-4.5809,-4.5813,-4.5824,-4.5837,-4.5841,-4.593,-4.5832,-4.5836,-4.5838,-4.584,-4.6112,-4.6116,0,0,0,0,0,0,-4.5811,-4.5813,-4.5893,-4.5894,-4.5815,-4.5826,-4.5826,-4.5849,-4.5844,-4.584,-4.5816,-4.5808,-4.5832,-4.5836,-4.5841,-4.5971,-4.5836,-4.5841,-4.5843,-4.6107,-4.6113,-4.6118,0,0,0,0,0,0,-4.5809,-4.5819,-4.5893,-4.5852,-4.5859,-4.5832,-4.5859,-4.5852,-4.5865,-4.5844,-4.5838,-4.5835,-4.5828,-4.5835,-4.5908,-4.597,-4.5843,-4.5847,-4.6102,-4.6109,-4.6115,-4.6231,0,0,0,0,0,0,-4.5807,-4.5819,-4.586,-4.5854,-4.5862,-4.5959,-4.5863,-4.5855,-4.5873,-4.5863,-4.5861,-4.5856,-4.5826,-4.5902,-4.5912,-4.5974,-4.585,-4.6096,-4.6105,-4.6113,-4.6222,-4.6241,-4.6258,0,0,0,0,0,-4.5803,-4.5892,-4.5863,-4.5873,-4.5913,-4.5963,-4.5967,-4.593,-4.5878,-4.592,-4.5907,-4.5856,-4.5962,-4.591,-4.5921,-4.5985,-4.6092,-4.6102,-4.6112,-4.6213,-4.6237,-4.6257,0,0,0,0,0,0,-4.5905,-4.589,-4.5858,-4.5947,-4.5957,-4.5946,-4.5997,-4.5957,-4.5981,-4.597,-4.5924,-4.5924,-4.6005,-4.6003,-4.5945,-4.6093,-4.6018,-4.6031,-4.6091,-4.6113,-4.6131,-4.6129,-4.5854,0,0,0,0,0,-4.5939,-4.5981,-4.5965,-4.6045,-4.6052,-4.6024,-4.6044,-4.6016,-4.6024,-4.6027,-4.6019,-4.603,-4.6065,-4.609,-4.6121,-4.6222,-4.622,-4.6271,-4.6289,-4.6304,-4.6315,-4.637,-4.6392,-4.6151,-4.6151,-4.6151,0,0,-4.6007,-4.6004,-4.6033,-4.6066,-4.607,-4.6115,-4.6028,-4.6078,-4.6111,-4.6035,-4.6103,-4.6099,-4.6107,-4.6195,-4.6234,-4.6195,-4.6382,-4.6317,-4.6329,-4.6332,-4.6383,-4.6405,-4.6426,-4.6158,-4.6157,-4.6156,0,0,-4.6154,-4.6157,-4.6224,-4.6231,-4.6239,-4.6221,-4.6238,-4.6234,-4.6228,-4.6296,-4.624,-4.6279,-4.6341,-4.635,-4.6363,-4.6518,-4.6473,-4.653,-4.6623,-4.6677,-4.6696,-4.6712,-4.6768,-4.6788,-4.6542,-4.6542,-4.6542,0,-4.6238,-4.6303,-4.6264,-4.6319,-4.6335,-4.627,-4.6339,-4.6348,-4.6366,-4.6379,-4.6337,-4.6415,-4.6416,-4.6505,-4.6544,-4.6556,-4.6574,-4.6529,-4.6696,-4.6713,-4.6728,-4.678,-4.6801,-4.6549,-4.6548,-4.6547,-4.6547,0,-4.6406,-4.6452,-4.6506,-4.6526,-4.6549,-4.6611,-4.6582,-4.661,-4.6581,-4.6567,-4.6639,-4.6639,-4.667,-4.669,-4.6661,-4.6776,-4.6752,-4.6704,-4.6628,-4.6758,-4.6806,-4.6826,-4.6559,-4.6556,-4.6554,-4.6552,0,0,-4.6614,-4.6615,-4.6635,-4.6644,-4.6651,-4.6686,-4.6746,-4.6777,-4.6802,-4.6819,-4.6868,-4.6924,-4.688,-4.6895,-4.6867,-4.6914,-4.7038,-4.686,-4.686,-4.6893,-4.7166,-4.7201,-4.7224,-4.7009,-4.7013,-4.7016,-4.7165,0,-4.6757,-4.6859,-4.6827,-4.693,-4.6973,-4.6914,-4.6966,-4.6977,-4.6967,-4.7002,-4.6991,-4.7031,-4.6971,-4.6979,-4.7024,-4.7013,-4.7092,-4.7003,-4.7054,-4.7057,-4.7052,-4.725,-4.7286,-4.7426,-4.7183,-4.7187,-4.7189,0,-4.6937,-4.6961,-4.7069,-4.707,-4.7087,-4.7135,-4.7162,-4.7197,-4.7208,-4.7198,-4.7216,-4.718,-4.7239,-4.7165,-4.7247,-4.7188,-4.7208,-4.7206,-4.7211,-4.7212,-4.7129,-4.7256,-4.747,-4.7491,-4.7218,-4.7216,-4.7214,0,-4.7077,-4.7137,-4.721,-4.722,-4.7223,-4.7259,-4.7262,-4.7269,-4.7291,-4.7315,-4.7329,-4.736,-4.7377,-4.7403,-4.7376,-4.7324,-4.7463,-4.7386,-4.7456,-4.7457,-4.7485,-4.7483,-4.7705,-4.7501,-4.7501,-4.7501,-4.75,0,-4.7239,-4.7307,-4.7273,-4.7317,-4.7393,-4.7357,-4.7433,-4.7429,-4.7437,-4.748,-4.7432,-4.7474,-4.7437,-4.7476,-4.7456,-4.7527,-4.7535,-4.7529,-4.7522,-4.7532,-4.7533,-4.7543,-4.7532,-4.7506,-4.7505,-4.7504,-4.7503,0,-4.7407,-4.7387,-4.7462,-4.7461,-4.7462,-4.7518,-4.7517,-4.7558,-4.7547,-4.7602,-4.7613,-4.7595,-4.7638,-4.7615,-4.766,-4.7646,-4.7739,-4.772,-4.7735,-4.7729,-4.78,-4.7794,-4.8034,-4.8064,-4.7843,-4.7845,-4.7847,0,-4.751,-4.7562,-4.7567,-4.7593,-4.76,-4.7642,-4.7664,-4.7633,-4.7659,-4.7678,-4.7717,-4.7757,-4.7786,-4.7859,-4.785,-4.7885,-4.7865,-4.7948,-4.787,-4.7879,-4.7865,-4.7862,-4.7867,-4.7962,-4.7965,-4.7967,-4.7969,0,-4.7696,-4.7685,-4.7719,-4.7752,-4.778,-4.7804,-4.7823,-4.7848,-4.7817,-4.7848,-4.7893,-4.7916,-4.7963,-4.8004,-4.8034,-4.8038,-4.7999,-4.7994,-4.8012,-4.8021,-4.8027,-4.8024,-4.7776,-4.7988,-4.7986,-4.7984,-4.7983,-4.7982,-4.7834,-4.7878,-4.7889,-4.7929,-4.7942,-4.7962,-4.8001,-4.7996,-4.8033,-4.8068,-4.8048,-4.8101,-4.8114,-4.8151,-4.8161,-4.8201,-4.8168,-4.8194,-4.8201,-4.8207,-4.8216,-4.8023,-4.8207,-4.8207,-4.8206,-4.8206,-4.8205,0,-4.8017,-4.8022,-4.806,-4.809,-4.8123,-4.8085,-4.8106,-4.8135,-4.8182,-4.8198,-4.8229,-4.8282,-4.8321,-4.8317,-4.8354,-4.8388,-4.8371,-4.8398,-4.8394,-4.8396,-4.8244,-4.8224,-4.8411,-4.8411,-4.8411,-4.8411,-4.8411,-4.8411,-4.8115,-4.8187,-4.8178,-4.8256,-4.826,-4.8312,-4.8327,-4.8346,-4.8358,-4.8419,-4.8452,-4.845,-4.8458,-4.8496,-4.8531,-4.8529,-4.8544,-4.8578,-4.8569,-4.8427,-4.8406,-4.8387,-4.8368,-4.8582,-4.8582,-4.8717,-4.8719,-4.872]},{"header":{"parameterUnit":"m.s-1","parameterCategory":1,"la1":30.2991,"la2":30.254,"lo1":-89.0895,"lo2":-89.0444,"dy":0.0017,"dx":0.0017,"nx":28,"ny":28,"refTime":"2026-03-03T03:00:00:Z","depth":0,"parameterNumber":3,"parameterNumberName":"V-component_of_WINDS"},"data":[0,0,0,0,0,0,0,0,0,0,0,0,0,0,0,0,0,0,0,0,0,0,0,0,0,0,0,0,0,0,0,0,0,0,0,0,0,0,0,0,0,0,0,0,0,0,0,0,0,0,0,0,0,0,0,0,0,0,0.6203,0.6203,0,0.6241,0.6241,0.6242,0.6285,0.6286,0.6287,0.6287,0.6323,0.6324,0.6324,0,0,0,0,0,0,0,0,0,0,0,0,0,0.6167,0.6167,0.6202,0.6203,0.6203,0.6241,0.6241,0.6242,0.6285,0.6286,0.6287,0.6288,0.6323,0.6324,0.6324,0,0,0,0,0,0,0,0,0,0,0,0,0,0.6191,0.6167,0.6202,0.623,0.6233,0.6241,0.6241,0.6242,0.6285,0.6286,0.6287,0.6288,0.6323,0.6323,0.6324,0.6307,0,0,0.6326,0.6326,0,0,0,0,0,0,0,0,0.619,0.6193,0.6225,0.6228,0.6231,0.6259,0.6242,0.6264,0.6285,0.6265,0.6287,0.6289,0.6301,0.6303,0.6308,0.6309,0.631,0.6326,0.6326,0.6326,0.6326,0,0,0,0,0,0,0,0.6188,0.6191,0.6218,0.6226,0.6229,0.624,0.6245,0.6246,0.6277,0.6267,0.627,0.6274,0.6303,0.6308,0.6309,0.6311,0.6326,0.6326,0.6326,0.6327,0.6304,0.6303,0,0,0,0,0,0,0.6183,0.619,0.6216,0.6219,0.6213,0.624,0.6245,0.6249,0.6277,0.6282,0.6273,0.6276,0.6306,0.6309,0.6311,0.6296,0.6326,0.6327,0.6327,0.6305,0.6304,0.6303,0,0,0,0,0,0,0.6182,0.6185,0.6215,0.6205,0.621,0.624,0.6244,0.6249,0.6254,0.6282,0.6287,0.6273,0.6307,0.631,0.6309,0.6297,0.6327,0.6327,0.6306,0.6305,0.6303,0.6263,0,0,0,0,0,0,0.618,0.6184,0.6177,0.6205,0.621,0.6212,0.6243,0.625,0.6256,0.626,0.6283,0.6288,0.6308,0.6308,0.6309,0.6299,0.6328,0.6307,0.6305,0.6304,0.6266,0.6261,0.6256,0,0,0,0,0,0.6179,0.6163,0.6177,0.618,0.6203,0.6211,0.6214,0.6239,0.6254,0.6249,0.6267,0.6287,0.6299,0.6307,0.6309,0.6298,0.6308,0.6306,0.6304,0.6268,0.6262,0.6256,0,0,0,0,0,0,0.6131,0.6167,0.6183,0.6175,0.619,0.6219,0.6212,0.6231,0.6241,0.6244,0.6274,0.6279,0.6275,0.6287,0.6296,0.6286,0.6306,0.6305,0.6278,0.6273,0.6268,0.6265,0.6328,0,0,0,0,0,0.612,0.6125,0.6155,0.6146,0.6153,0.6181,0.6185,0.6204,0.622,0.6226,0.6244,0.6259,0.6266,0.627,0.6278,0.6268,0.6275,0.6262,0.6257,0.6253,0.6251,0.625,0.6245,0.6296,0.6296,0.6296,0,0,0.6097,0.6117,0.6117,0.6137,0.6151,0.6155,0.6186,0.6188,0.6192,0.6226,0.6227,0.6241,0.626,0.6255,0.6254,0.6264,0.6239,0.6251,0.6247,0.6247,0.6247,0.6242,0.6238,0.6295,0.6295,0.6295,0,0,0.6056,0.6071,0.6067,0.6081,0.6103,0.6122,0.6121,0.6148,0.6159,0.6161,0.6188,0.6193,0.6204,0.6217,0.6225,0.6195,0.6214,0.6197,0.6172,0.617,0.6166,0.6163,0.6154,0.615,0.6195,0.6195,0.6195,0,0.6024,0.6032,0.6061,0.6063,0.6072,0.6106,0.6103,0.6115,0.6137,0.6142,0.6155,0.6173,0.6187,0.6187,0.6181,0.6185,0.6186,0.6194,0.6165,0.6162,0.6159,0.6151,0.6147,0.6193,0.6193,0.6193,0.6193,0,0.5992,0.5998,0.5991,0.6015,0.6023,0.6021,0.6052,0.6056,0.6075,0.6094,0.6097,0.6116,0.6131,0.6132,0.6149,0.6136,0.6142,0.6159,0.618,0.6151,0.6144,0.6141,0.6189,0.619,0.6191,0.6191,0,0,0.5919,0.5963,0.596,0.5973,0.6001,0.6006,0.6008,0.6024,0.6028,0.6043,0.6046,0.6057,0.6075,0.6084,0.6103,0.6102,0.608,0.612,0.612,0.6112,0.6069,0.6056,0.6052,0.6093,0.6093,0.6092,0.6068,0,0.5885,0.5891,0.5919,0.5917,0.5924,0.5959,0.596,0.5978,0.5997,0.6005,0.6025,0.6034,0.6055,0.6061,0.6061,0.6082,0.6071,0.6084,0.6097,0.6097,0.6091,0.6048,0.6034,0.6009,0.6065,0.6064,0.6064,0,0.5844,0.586,0.5859,0.5891,0.5895,0.5896,0.5915,0.5923,0.5945,0.5959,0.5971,0.5994,0.5999,0.602,0.6028,0.6036,0.6043,0.6055,0.6055,0.6056,0.6078,0.6049,0.6002,0.5998,0.606,0.606,0.606,0,0.5793,0.5815,0.5818,0.5827,0.5864,0.5865,0.588,0.5903,0.5912,0.5929,0.5936,0.5951,0.596,0.5973,0.6,0.6012,0.6006,0.6028,0.6018,0.6017,0.6014,0.6014,0.5968,0.6018,0.6018,0.6018,0.6018,0,0.5752,0.575,0.5796,0.5797,0.5798,0.5832,0.583,0.5849,0.587,0.5877,0.5908,0.5913,0.5949,0.5959,0.598,0.5985,0.5988,0.6,0.6006,0.5998,0.5996,0.6002,0.6005,0.6017,0.6017,0.6018,0.6018,0,0.5694,0.5725,0.5731,0.5767,0.5776,0.5775,0.5806,0.581,0.5832,0.584,0.5844,0.5878,0.5892,0.5921,0.5941,0.5956,0.5956,0.5966,0.5949,0.5953,0.5941,0.5942,0.5898,0.5894,0.5946,0.5945,0.5945,0,0.5665,0.5666,0.5703,0.5711,0.5726,0.5737,0.5748,0.5782,0.5791,0.5819,0.582,0.5837,0.5852,0.5872,0.5899,0.5916,0.5927,0.591,0.5929,0.5922,0.5928,0.5928,0.5929,0.5905,0.5905,0.5904,0.5904,0,0.5612,0.5628,0.5643,0.5664,0.5676,0.5694,0.5713,0.5717,0.5756,0.5766,0.5781,0.5793,0.5817,0.5834,0.5856,0.5871,0.5894,0.5898,0.5897,0.5888,0.5879,0.5885,0.5938,0.5898,0.5899,0.5899,0.59,0.59,0.5569,0.5572,0.56,0.5616,0.5635,0.5653,0.566,0.5684,0.5698,0.5721,0.5741,0.5755,0.5781,0.5813,0.5828,0.584,0.5851,0.5849,0.5849,0.5848,0.5845,0.5877,0.5844,0.5844,0.5845,0.5845,0.5845,0,0.5518,0.5539,0.5554,0.5582,0.5595,0.5618,0.5641,0.5651,0.5664,0.5686,0.5702,0.5721,0.5739,0.5769,0.5789,0.5793,0.5804,0.5797,0.5797,0.5801,0.5833,0.5833,0.5788,0.5788,0.5788,0.5788,0.5788,0.5788,0.5493,0.5501,0.5521,0.5539,0.556,0.5576,0.5588,0.5605,0.5624,0.5645,0.5661,0.5681,0.5707,0.573,0.5748,0.5756,0.5762,0.5752,0.5764,0.5793,0.5798,0.5803,0.5803,0.5753,0.5753,0.5731,0.5731,0.5731]}]]